Weather History for Chariton, IA

Change the Weather History Date:

Tuesday, January 29, 2013

  Actual Average Record
Temperature  
Mean Temperature 48 °F -  
Max Temperature 64 °F 34 °F 64 °F (2013)
Min Temperature 32 °F 12 °F -22 °F (1966)
Degree Days  
Heating Degree Days 17    
Moisture  
Dew Point 40 °F    
Average Humidity 86    
Maximum Humidity 93    
Minimum Humidity 72    
Precipitation  
Precipitation 0.11 in - - ()
Sea Level Pressure  
Sea Level Pressure 29.58 in    
Wind  
Wind Speed 12 mph (NNW)    
Max Wind Speed 13 mph    
Max Gust Speed -    
Visibility 6 miles    
Events Rain , Snow    
Averages and records for this station are not official NWS values.
T = Trace of Precipitation, MM = Missing Value Source: NWS Daily Summary

Daily Weather History Graph

Daily Weather History Graph

Search for Another Location

Airport:

Trip Planner

Search our weather history database for the weather conditions in past years. The results will help you decide how hot, cold, wet, or windy it might be!

Date:

Astronomy

Jan. 29, 2013 Rise Set
Actual Time 7:26 AM CST 5:27 PM CST
Civil Twilight 6:57 AM CST 5:56 PM CST
Nautical Twilight 6:24 AM CST 6:29 PM CST
Astronomical Twilight 5:51 AM CST 7:01 PM CST
Moon 8:25 PM CST (1/29) 8:22 AM CST (1/29)
Length of Visible Light 10h 59m
Length of Day
10h 00m
Waning Gibbous, 93% of the Moon is Illuminated
Jan 29
Waning Gibbous
Feb 3
Last Quarter
Feb 10
New
Feb 17
First Quarter
Feb 25
Full

Hourly Weather History & Observations

Time (CST) Temp. Windchill Dew Point Humidity Pressure Visibility Wind Dir Wind Speed Gust Speed Precip Events Conditions
12:15 AM 60.8 °F - 55.4 °F 82% 29.62 in 10.0 mi North - - N/A   Clear
12:35 AM 60.8 °F - 55.4 °F 82% 29.61 in 10.0 mi North - - N/A   Clear
12:55 AM 60.8 °F - 55.4 °F 82% 29.60 in 10.0 mi North - - N/A   Clear
1:15 AM 62.6 °F - 55.4 °F 77% 29.59 in 10.0 mi North - - N/A   Clear
1:35 AM 62.6 °F - 55.4 °F 77% 29.58 in 10.0 mi North - - N/A   Clear
1:55 AM 62.6 °F - 55.4 °F 77% 29.57 in 10.0 mi North - - N/A   Scattered Clouds
2:15 AM 62.6 °F - 57.2 °F 82% 29.56 in 10.0 mi North - - N/A   Scattered Clouds
2:35 AM 62.6 °F - 57.2 °F 82% 29.56 in 10.0 mi North - - N/A   Mostly Cloudy
2:55 AM 62.6 °F - 57.2 °F 82% 29.56 in 10.0 mi North - - N/A   Mostly Cloudy
3:15 AM 64.4 °F - 57.2 °F 77% 29.54 in 10.0 mi North - - N/A   Scattered Clouds
3:35 AM 62.6 °F - 53.6 °F 72% 29.56 in 10.0 mi North - - N/A   Mostly Cloudy
3:55 AM 60.8 °F - 51.8 °F 72% 29.56 in 10.0 mi North - - N/A   Scattered Clouds
4:15 AM 59.0 °F - 51.8 °F 77% 29.57 in 10.0 mi North - - N/A   Clear
4:35 AM 57.2 °F - 51.8 °F 82% 29.56 in 10.0 mi North - - N/A   Scattered Clouds
4:55 AM 59.0 °F - 53.6 °F 82% 29.56 in 10.0 mi North - - N/A   Clear
5:15 AM 60.8 °F - 55.4 °F 82% 29.56 in 7.0 mi North - - N/A   Scattered Clouds
5:35 AM 62.6 °F - 55.4 °F 77% 29.55 in 7.0 mi North - - N/A Rain Light Rain
5:55 AM 60.8 °F - 55.4 °F 82% 29.58 in 7.0 mi North - - N/A   Overcast
6:15 AM 55.4 °F - 51.8 °F 88% 29.60 in 5.0 mi North - - N/A   Haze
6:35 AM 50.0 °F - 44.6 °F 82% 29.60 in 2.0 mi North - - N/A   Haze
6:55 AM 48.2 °F - 42.8 °F 82% 29.61 in 2.0 mi North - - N/A   Haze
7:15 AM 46.4 °F - 41.0 °F 81% 29.61 in 4.0 mi North - - N/A   Haze
7:35 AM 44.6 °F - 39.2 °F 81% 29.59 in 5.0 mi North - - N/A   Haze
7:55 AM 44.6 °F - 39.2 °F 81% 29.61 in 7.0 mi North - - N/A   Overcast
8:15 AM 42.8 °F - 37.4 °F 81% 29.63 in 5.0 mi North - - N/A   Haze
8:35 AM 42.8 °F - 37.4 °F 81% 29.64 in 7.0 mi North - - N/A   Overcast
8:55 AM 42.8 °F - 37.4 °F 81% 29.64 in 7.0 mi North - - N/A   Overcast
9:15 AM 42.8 °F - 37.4 °F 81% 29.64 in 7.0 mi North - - N/A   Overcast
9:35 AM 42.8 °F - 37.4 °F 81% 29.63 in 7.0 mi North - - N/A   Overcast
9:55 AM 42.8 °F - 37.4 °F 81% 29.64 in 10.0 mi North - - N/A   Scattered Clouds
10:15 AM 42.8 °F - 37.4 °F 81% 29.65 in 7.0 mi North - - N/A   Scattered Clouds
10:35 AM 42.8 °F - 37.4 °F 81% 29.66 in 7.0 mi North - - N/A   Drizzle
10:55 AM 42.8 °F - 37.4 °F 81% 29.67 in 7.0 mi North - - N/A   Light Drizzle
11:15 AM - - - N/A% 29.65 in - North - - 0.01 in   Unknown
11:35 AM 37.4 °F 29.8 °F 35.6 °F 93% 29.64 in 7.0 mi NNW 11.5 mph - 0.02 in Rain Light Rain
11:55 AM 37.4 °F - 33.8 °F 87% 29.61 in 7.0 mi North - - 0.02 in Rain Rain
12:15 PM 37.4 °F - 35.6 °F 93% 29.59 in 7.0 mi North - - N/A   Overcast
12:35 PM 35.6 °F - 33.8 °F 93% 29.59 in 7.0 mi North - - N/A   Overcast
12:55 PM 35.6 °F 27.5 °F 33.8 °F 93% 29.59 in 7.0 mi NNW 11.5 mph - N/A   Overcast
1:15 PM 35.6 °F - 33.8 °F 93% 29.56 in 7.0 mi North - - N/A   Overcast
1:35 PM 35.6 °F - 33.8 °F 93% 29.59 in 5.0 mi North - - N/A   Overcast
1:55 PM 35.6 °F - 33.8 °F 93% 29.57 in 7.0 mi North - - N/A   Overcast
2:15 PM 35.6 °F - 33.8 °F 93% 29.56 in 7.0 mi North - - N/A   Overcast
2:35 PM 35.6 °F 27.1 °F 33.8 °F 93% 29.57 in 5.0 mi NNW 12.7 mph - N/A   Overcast
2:55 PM 35.6 °F - 33.8 °F 93% 29.56 in 4.0 mi North - - N/A   Overcast
3:15 PM 35.6 °F - 33.8 °F 93% 29.52 in 5.0 mi North - - N/A   Overcast
3:35 PM 35.6 °F - 33.8 °F 93% 29.54 in 2.5 mi North - - N/A   Overcast
3:55 PM 33.8 °F - 32.0 °F 93% 29.55 in 4.0 mi North - - N/A   Overcast
4:15 PM 33.8 °F 24.8 °F 32.0 °F 93% 29.58 in 7.0 mi NNW 12.7 mph - N/A   Overcast
4:35 PM 33.8 °F - 32.0 °F 93% 29.58 in 7.0 mi North - - N/A   Overcast
4:55 PM 33.8 °F - 32.0 °F 93% 29.56 in 7.0 mi North - - N/A   Overcast
5:15 PM 33.8 °F - 32.0 °F 93% 29.58 in 7.0 mi North - - N/A   Overcast
5:35 PM 33.8 °F - 32.0 °F 93% 29.55 in 10.0 mi North - - N/A   Overcast
5:55 PM 33.8 °F - 32.0 °F 93% 29.57 in 7.0 mi North - - N/A   Overcast
6:15 PM 33.8 °F - 30.2 °F 87% 29.55 in 5.0 mi North - - N/A   Overcast
6:35 PM 33.8 °F - 30.2 °F 87% 29.59 in 5.0 mi North - - N/A   Overcast
6:55 PM 33.8 °F 24.8 °F 30.2 °F 87% 29.62 in 7.0 mi NNW 12.7 mph - N/A   Overcast
7:15 PM 33.8 °F - 30.2 °F 87% 29.56 in 3.0 mi North - - 0.02 in Rain Light Rain
7:35 PM 33.8 °F - 30.2 °F 87% 29.55 in 4.0 mi North - - 0.03 in Rain Light Rain
7:55 PM 33.8 °F - 30.2 °F 87% 29.53 in 5.0 mi North - - 0.03 in   Overcast
8:15 PM 33.8 °F - 30.2 °F 87% 29.59 in 4.0 mi North - - N/A   Overcast
8:35 PM 33.8 °F - 30.2 °F 87% 29.59 in 4.0 mi North - - N/A   Light Drizzle
8:55 PM 33.8 °F 25.3 °F 30.2 °F 87% 29.59 in 4.0 mi NNW 11.5 mph - 0.01 in   Overcast
9:15 PM 33.8 °F 24.8 °F 30.2 °F 87% 29.60 in 2.5 mi NNW 12.7 mph - 0.02 in Rain Rain
9:35 PM 33.8 °F - 30.2 °F 87% 29.59 in 3.0 mi North - - 0.04 in   Overcast
9:55 PM 32.0 °F - 30.2 °F 93% 29.56 in 3.0 mi North - - 0.05 in Snow Light Snow
10:15 PM 32.0 °F - 30.2 °F 93% 29.55 in 4.0 mi North - - N/A   Overcast
10:35 PM 32.0 °F - 30.2 °F 93% 29.54 in 4.0 mi North - - N/A   Overcast
10:55 PM 32.0 °F - 30.2 °F 93% 29.53 in 5.0 mi North - - N/A   Overcast
11:15 PM 32.0 °F - 30.2 °F 93% 29.53 in 5.0 mi North - - N/A   Overcast
11:35 PM 32.0 °F - 30.2 °F 93% 29.55 in 4.0 mi North - - N/A Snow Light Snow